[[{"header":{"parameterUnit":"m.s-1","parameterCategory":1,"la1":30.2991,"la2":30.254,"lo1":-89.0895,"lo2":-89.0444,"dy":0.0017,"dx":0.0017,"nx":28,"ny":28,"refTime":"2025-12-11T09:00:00:Z","depth":0,"parameterNumber":2,"parameterNumberName":"U-component_of_WINDS"},"data":[0,0,0,0,0,0,0,0,0,0,0,0,0,0,0,0,0,0,0,0,0,0,0,0,0,0,0,0,0,0,0,0,0,0,0,0,0,0,0,0,0,0,0,0,0,0,0,0,0,0,0,0,0,0,0,0,0,0,0.0245,0.0245,0,0.0259,0.0259,0.0259,0.0258,0.0258,0.0258,0.0258,0.0273,0.0273,0.0274,0,0,0,0,0,0,0,0,0,0,0,0,0,0.0221,0.0221,0.0245,0.0245,0.0245,0.0259,0.0259,0.0259,0.0258,0.0258,0.0258,0.0258,0.0272,0.0273,0.0274,0,0,0,0,0,0,0,0,0,0,0,0,0,0.0233,0.0221,0.0245,0.0246,0.0247,0.0258,0.0259,0.0259,0.0258,0.0258,0.0258,0.0257,0.0272,0.0273,0.0274,0.0285,0,0,0.0277,0.0277,0,0,0,0,0,0,0,0,0.0232,0.0233,0.0246,0.0246,0.0247,0.0256,0.0256,0.0268,0.0258,0.0254,0.0258,0.0257,0.0268,0.0269,0.0272,0.0286,0.0287,0.0277,0.0277,0.0278,0.0278,0,0,0,0,0,0,0,0.0231,0.0233,0.025,0.0246,0.0247,0.0247,0.0249,0.0258,0.0262,0.0254,0.0254,0.0256,0.0268,0.0271,0.0272,0.0287,0.0277,0.0278,0.0278,0.0278,0.0314,0.0315,0,0,0,0,0,0,0.023,0.0232,0.025,0.0251,0.0238,0.0248,0.025,0.0254,0.0262,0.0263,0.0256,0.0256,0.027,0.0271,0.0273,0.0289,0.0278,0.0278,0.0279,0.0314,0.0314,0.0315,0,0,0,0,0,0,0.0229,0.0231,0.0249,0.0241,0.0244,0.0249,0.0253,0.0254,0.0257,0.0264,0.0264,0.0259,0.027,0.0272,0.0283,0.0289,0.0279,0.028,0.0313,0.0314,0.0315,0.0319,0,0,0,0,0,0,0.0228,0.0231,0.0234,0.0242,0.0244,0.0258,0.0254,0.0254,0.0259,0.0259,0.0266,0.0267,0.027,0.0282,0.0284,0.029,0.028,0.0313,0.0314,0.0314,0.0319,0.032,0.0321,0,0,0,0,0,0.0228,0.0235,0.0235,0.0237,0.0249,0.0258,0.026,0.0262,0.0259,0.0264,0.0268,0.0267,0.0288,0.0283,0.0285,0.0292,0.0312,0.0313,0.0314,0.0318,0.032,0.0321,0,0,0,0,0,0,0.0228,0.0236,0.0236,0.0245,0.0251,0.0258,0.0263,0.0264,0.0271,0.027,0.0273,0.0275,0.0287,0.029,0.0284,0.0305,0.03,0.0302,0.0302,0.0304,0.0305,0.0304,0.0281,0,0,0,0,0,0.023,0.0236,0.0243,0.0251,0.0254,0.0258,0.0262,0.0264,0.027,0.0273,0.0278,0.0285,0.0293,0.0299,0.0306,0.0319,0.0322,0.0325,0.0327,0.0328,0.0329,0.0339,0.0341,0.0318,0.0318,0.0318,0,0,0.0232,0.0237,0.0241,0.0251,0.0256,0.0264,0.026,0.0268,0.0275,0.0274,0.0285,0.029,0.0298,0.031,0.0316,0.0314,0.0336,0.0329,0.033,0.0331,0.034,0.0342,0.0344,0.0319,0.0318,0.0318,0,0,0.0241,0.0245,0.0253,0.0259,0.0266,0.0269,0.0272,0.0279,0.0282,0.0293,0.0294,0.0302,0.0316,0.0322,0.0327,0.0342,0.0342,0.0345,0.0352,0.0361,0.0363,0.0365,0.0372,0.0374,0.0346,0.0346,0.0346,0,0.0244,0.0255,0.0257,0.0266,0.0271,0.0272,0.0281,0.0286,0.0296,0.0301,0.0298,0.0317,0.0322,0.0338,0.0341,0.0345,0.0349,0.0344,0.0362,0.0364,0.0366,0.0373,0.0375,0.0346,0.0346,0.0346,0.0346,0,0.0259,0.0267,0.0272,0.0283,0.0289,0.0297,0.0302,0.0308,0.031,0.0314,0.0327,0.0334,0.0345,0.0348,0.0349,0.0365,0.0364,0.0361,0.0357,0.0368,0.0375,0.0377,0.0347,0.0347,0.0347,0.0346,0,0,0.0267,0.028,0.0282,0.0288,0.0297,0.0304,0.0314,0.0325,0.0331,0.0338,0.0348,0.0361,0.036,0.0366,0.0368,0.0376,0.039,0.0374,0.0374,0.0378,0.0411,0.0413,0.0416,0.0391,0.0391,0.0391,0.0411,0,0.0278,0.0295,0.0299,0.0314,0.0323,0.0325,0.0334,0.0342,0.0347,0.0356,0.0361,0.0371,0.0368,0.0372,0.038,0.0387,0.0397,0.0385,0.0401,0.0402,0.04,0.0419,0.042,0.0438,0.0413,0.0413,0.0414,0,0.0292,0.0301,0.0318,0.0329,0.0332,0.034,0.0352,0.036,0.037,0.0373,0.0381,0.0383,0.0396,0.039,0.0409,0.0401,0.0408,0.0412,0.0413,0.0415,0.0409,0.0423,0.0443,0.0446,0.0417,0.0417,0.0417,0,0.0299,0.0315,0.0327,0.0332,0.0344,0.035,0.0356,0.0366,0.0373,0.0383,0.0388,0.0399,0.0406,0.0416,0.0422,0.0417,0.0441,0.0435,0.0445,0.0445,0.045,0.045,0.0474,0.0453,0.0453,0.0453,0.0453,0,0.0311,0.0321,0.033,0.0338,0.0351,0.0356,0.0368,0.0374,0.0383,0.0394,0.0396,0.0406,0.0413,0.0424,0.0429,0.0445,0.0448,0.0452,0.0453,0.0452,0.0452,0.0457,0.0457,0.0454,0.0454,0.0453,0.0453,0,0.032,0.0326,0.034,0.0352,0.0355,0.0364,0.0375,0.0383,0.0389,0.0402,0.0406,0.0415,0.0429,0.0436,0.0453,0.0457,0.0475,0.0475,0.0472,0.0473,0.0483,0.0483,0.0512,0.0517,0.0491,0.0492,0.0492,0,0.0327,0.0336,0.0349,0.0356,0.0362,0.0373,0.038,0.0387,0.0395,0.0408,0.0416,0.043,0.0442,0.0464,0.0473,0.0487,0.0488,0.0498,0.049,0.049,0.0491,0.0491,0.0493,0.0499,0.0499,0.05,0.05,0,0.0341,0.0344,0.0355,0.0367,0.0376,0.0387,0.0397,0.0403,0.0411,0.042,0.0435,0.0444,0.0462,0.0477,0.0492,0.05,0.0502,0.0502,0.0506,0.0505,0.0503,0.0506,0.0477,0.0501,0.0501,0.0501,0.0501,0.0501,0.035,0.0358,0.037,0.0382,0.0391,0.0401,0.041,0.0418,0.043,0.0446,0.0449,0.0465,0.0478,0.0499,0.0507,0.0521,0.0519,0.0523,0.0524,0.0526,0.0527,0.0501,0.0523,0.0523,0.0523,0.0523,0.0523,0,0.0365,0.0373,0.0384,0.0399,0.041,0.0411,0.0423,0.0432,0.0446,0.0458,0.047,0.0488,0.0503,0.0514,0.0531,0.054,0.0541,0.0544,0.0544,0.0546,0.0527,0.0523,0.0542,0.0542,0.0542,0.0542,0.0542,0.0542,0.0374,0.0389,0.0394,0.0415,0.0423,0.0438,0.0445,0.0456,0.0465,0.0486,0.0498,0.0506,0.0518,0.0536,0.0551,0.0554,0.0561,0.0563,0.0567,0.0549,0.0547,0.0545,0.0542,0.0564,0.0564,0.0585,0.0585,0.0585]},{"header":{"parameterUnit":"m.s-1","parameterCategory":1,"la1":30.2991,"la2":30.254,"lo1":-89.0895,"lo2":-89.0444,"dy":0.0017,"dx":0.0017,"nx":28,"ny":28,"refTime":"2025-12-11T09:00:00:Z","depth":0,"parameterNumber":3,"parameterNumberName":"V-component_of_WINDS"},"data":[0,0,0,0,0,0,0,0,0,0,0,0,0,0,0,0,0,0,0,0,0,0,0,0,0,0,0,0,0,0,0,0,0,0,0,0,0,0,0,0,0,0,0,0,0,0,0,0,0,0,0,0,0,0,0,0,0,0,-0.2508,-0.2508,0,-0.2506,-0.2506,-0.2506,-0.2516,-0.2516,-0.2516,-0.2517,-0.2513,-0.2513,-0.2512,0,0,0,0,0,0,0,0,0,0,0,0,0,-0.2518,-0.2517,-0.2508,-0.2508,-0.2508,-0.2506,-0.2506,-0.2506,-0.2516,-0.2516,-0.2516,-0.2517,-0.2513,-0.2513,-0.2512,0,0,0,0,0,0,0,0,0,0,0,0,0,-0.2514,-0.2517,-0.2508,-0.2513,-0.2513,-0.2506,-0.2506,-0.2506,-0.2516,-0.2516,-0.2517,-0.2517,-0.2513,-0.2513,-0.2512,-0.25,0,0,-0.251,-0.251,0,0,0,0,0,0,0,0,-0.2514,-0.2514,-0.2512,-0.2512,-0.2513,-0.2512,-0.2508,-0.2504,-0.2516,-0.2515,-0.2517,-0.2517,-0.2512,-0.2512,-0.251,-0.25,-0.25,-0.251,-0.251,-0.251,-0.251,0,0,0,0,0,0,0,-0.2515,-0.2514,-0.2507,-0.2512,-0.2512,-0.2514,-0.2514,-0.2507,-0.2511,-0.2515,-0.2515,-0.2515,-0.2512,-0.2511,-0.251,-0.25,-0.251,-0.251,-0.251,-0.2509,-0.2477,-0.2477,0,0,0,0,0,0,-0.2515,-0.2514,-0.2507,-0.2507,-0.2515,-0.2513,-0.2513,-0.2511,-0.2511,-0.2511,-0.2515,-0.2516,-0.2511,-0.2511,-0.251,-0.2494,-0.251,-0.2509,-0.2509,-0.2478,-0.2477,-0.2476,0,0,0,0,0,0,-0.2515,-0.2514,-0.2507,-0.2511,-0.251,-0.2513,-0.251,-0.2511,-0.251,-0.2511,-0.2512,-0.2513,-0.2512,-0.2511,-0.2502,-0.2494,-0.2509,-0.2509,-0.2478,-0.2477,-0.2477,-0.2464,0,0,0,0,0,0,-0.2515,-0.2514,-0.251,-0.2511,-0.251,-0.25,-0.251,-0.2511,-0.2509,-0.251,-0.2509,-0.2509,-0.2512,-0.2503,-0.2502,-0.2494,-0.2508,-0.2479,-0.2478,-0.2477,-0.2465,-0.2463,-0.2461,0,0,0,0,0,-0.2515,-0.2506,-0.251,-0.2509,-0.2505,-0.2499,-0.2499,-0.2503,-0.2508,-0.2504,-0.2504,-0.2509,-0.2496,-0.2502,-0.2501,-0.2493,-0.2479,-0.2478,-0.2477,-0.2466,-0.2463,-0.2461,0,0,0,0,0,0,-0.2504,-0.2506,-0.251,-0.2501,-0.25,-0.2501,-0.2496,-0.25,-0.2497,-0.2498,-0.2502,-0.2502,-0.2492,-0.2492,-0.2498,-0.248,-0.2488,-0.2487,-0.248,-0.2478,-0.2476,-0.2475,-0.2508,0,0,0,0,0,-0.2501,-0.2497,-0.2499,-0.249,-0.249,-0.2493,-0.2491,-0.2494,-0.2492,-0.2492,-0.2492,-0.249,-0.2485,-0.2482,-0.2477,-0.2465,-0.2464,-0.2459,-0.2457,-0.2455,-0.2453,-0.2445,-0.2442,-0.2473,-0.2473,-0.2473,0,0,-0.2493,-0.2494,-0.2491,-0.2488,-0.2488,-0.2482,-0.2492,-0.2487,-0.2482,-0.2491,-0.2482,-0.2482,-0.248,-0.2469,-0.2464,-0.2469,-0.2445,-0.2454,-0.2452,-0.2451,-0.2444,-0.2441,-0.2438,-0.2472,-0.2472,-0.2472,0,0,-0.2477,-0.2478,-0.247,-0.2469,-0.2469,-0.2471,-0.2469,-0.2469,-0.2469,-0.2461,-0.2467,-0.2462,-0.2454,-0.2451,-0.2449,-0.2431,-0.2435,-0.243,-0.2418,-0.241,-0.2408,-0.2406,-0.2398,-0.2395,-0.2428,-0.2428,-0.2428,0,-0.2467,-0.246,-0.2466,-0.2459,-0.2457,-0.2465,-0.2457,-0.2456,-0.2453,-0.2451,-0.2456,-0.2445,-0.2445,-0.2433,-0.2428,-0.2427,-0.2424,-0.2429,-0.2408,-0.2406,-0.2404,-0.2396,-0.2393,-0.2427,-0.2428,-0.2428,-0.2428,0,-0.2448,-0.2443,-0.2437,-0.2435,-0.2432,-0.2425,-0.2428,-0.2425,-0.2428,-0.2429,-0.242,-0.2419,-0.2414,-0.2412,-0.2415,-0.24,-0.2402,-0.2408,-0.2416,-0.24,-0.2393,-0.239,-0.2426,-0.2427,-0.2427,-0.2427,0,0,-0.2424,-0.2424,-0.2422,-0.242,-0.242,-0.2416,-0.2408,-0.2404,-0.24,-0.2398,-0.2391,-0.2384,-0.2389,-0.2386,-0.2389,-0.2382,-0.2366,-0.2388,-0.2388,-0.2383,-0.2347,-0.2341,-0.2338,-0.2369,-0.2368,-0.2368,-0.2346,0,-0.2406,-0.2394,-0.2399,-0.2386,-0.2381,-0.2388,-0.2381,-0.2379,-0.238,-0.2375,-0.2376,-0.237,-0.2377,-0.2376,-0.2369,-0.2369,-0.2358,-0.2371,-0.236,-0.236,-0.2359,-0.2334,-0.2329,-0.2308,-0.2344,-0.2343,-0.2343,0,-0.2384,-0.2382,-0.2368,-0.2368,-0.2366,-0.236,-0.2355,-0.2351,-0.2349,-0.235,-0.2346,-0.235,-0.2342,-0.2351,-0.2338,-0.2347,-0.2343,-0.2342,-0.2341,-0.2339,-0.2349,-0.233,-0.2302,-0.2298,-0.2339,-0.2339,-0.2339,0,-0.2366,-0.2359,-0.235,-0.2349,-0.2348,-0.2343,-0.2343,-0.2341,-0.2338,-0.2334,-0.2331,-0.2327,-0.2323,-0.2319,-0.232,-0.2328,-0.2307,-0.2317,-0.2305,-0.2305,-0.2299,-0.23,-0.2269,-0.23,-0.23,-0.23,-0.23,0,-0.2345,-0.2336,-0.2341,-0.2335,-0.2325,-0.233,-0.232,-0.232,-0.2318,-0.2312,-0.2318,-0.2311,-0.2315,-0.2308,-0.231,-0.2298,-0.2297,-0.2296,-0.2296,-0.2294,-0.2294,-0.229,-0.2291,-0.2299,-0.2299,-0.23,-0.23,0,-0.2322,-0.2325,-0.2316,-0.2316,-0.2316,-0.2308,-0.2308,-0.2302,-0.2303,-0.2295,-0.2293,-0.2294,-0.2287,-0.2288,-0.228,-0.2281,-0.2265,-0.2268,-0.2266,-0.2266,-0.2254,-0.2254,-0.2219,-0.2213,-0.2249,-0.2249,-0.2249,0,-0.2308,-0.2301,-0.2301,-0.2297,-0.2296,-0.229,-0.2287,-0.2291,-0.2287,-0.2284,-0.2278,-0.2271,-0.2265,-0.2252,-0.2252,-0.2245,-0.2246,-0.2234,-0.2245,-0.2243,-0.2244,-0.2243,-0.2242,-0.2232,-0.2231,-0.2231,-0.2231,0,-0.2281,-0.2283,-0.2279,-0.2274,-0.227,-0.2267,-0.2264,-0.226,-0.2264,-0.2259,-0.2252,-0.2247,-0.2239,-0.2231,-0.2224,-0.2222,-0.2226,-0.2228,-0.2224,-0.2221,-0.222,-0.2218,-0.2258,-0.2228,-0.2228,-0.2228,-0.2229,-0.2229,-0.2261,-0.2255,-0.2254,-0.2248,-0.2246,-0.2243,-0.2237,-0.2237,-0.2232,-0.2225,-0.2228,-0.2219,-0.2215,-0.2207,-0.2204,-0.2196,-0.22,-0.2196,-0.2195,-0.2193,-0.2191,-0.2223,-0.2195,-0.2195,-0.2195,-0.2196,-0.2196,0,-0.2234,-0.2233,-0.2228,-0.2223,-0.2218,-0.2224,-0.2221,-0.2216,-0.2208,-0.2205,-0.2199,-0.219,-0.2182,-0.2181,-0.2173,-0.2167,-0.2168,-0.2164,-0.2164,-0.2163,-0.2188,-0.2191,-0.2163,-0.2163,-0.2163,-0.2163,-0.2163,-0.2163,-0.2218,-0.2208,-0.2209,-0.2198,-0.2197,-0.2188,-0.2186,-0.2182,-0.218,-0.2169,-0.2163,-0.2163,-0.216,-0.2152,-0.2144,-0.2144,-0.214,-0.2135,-0.2135,-0.2158,-0.2161,-0.2164,-0.2167,-0.2134,-0.2134,-0.211,-0.2109,-0.2109]}]]